This is the latest recevied weather packets stored in our database for station/object N2RDT. If no packets are shown the sender has not sent any weather packets the latest 10 day(s).
| Time | Temp. | Humidity | Pressure | Rain* | Wind** | Luminosity | Snow |
|---|---|---|---|---|---|---|---|
| 1777822669 | 13.89° C | 45% | 1019.9 hPa | 0 mm | - | 894 W/m² | - |
| 1777822366 | 14.44° C | 38% | 1019.7 hPa | 0 mm | - | 883 W/m² | - |
| 1777822064 | 13.89° C | 38% | 1019.8 hPa | 0 mm | - | 875 W/m² | - |
| 1777821762 | 13.89° C | 39% | 1019.7 hPa | 0 mm | - | 864 W/m² | - |
| 1777821458 | 13.89° C | 40% | 1019.8 hPa | 0 mm | - | 854 W/m² | - |
| 1777821156 | 13.89° C | 38% | 1019.9 hPa | 0 mm | - | 842 W/m² | - |
| 1777820852 | 14.44° C | 39% | 1019.8 hPa | 0 mm | - | 830 W/m² | - |
| 1777820549 | 14.44° C | 43% | 1019.6 hPa | 0 mm | - | 821 W/m² | - |
| 1777820245 | 13.89° C | 44% | 1019.7 hPa | 0 mm | - | 807 W/m² | - |
| 1777819943 | 13.89° C | 41% | 1019.7 hPa | 0 mm | - | 797 W/m² | - |
| 1777819640 | 13.33° C | 41% | 1019.7 hPa | 0 mm | - | 781 W/m² | - |
| 1777819338 | 13.89° C | 42% | 1019.8 hPa | 0 mm | - | 766 W/m² | - |
| 1777819034 | 13.33° C | 42% | 1019.7 hPa | 0 mm | - | 750 W/m² | - |
| 1777818732 | 13.33° C | 44% | 1019.7 hPa | 0 mm | - | 738 W/m² | - |
| 1777818428 | 13.89° C | 44% | 1019.5 hPa | 0 mm | - | 718 W/m² | - |
| 1777818125 | 13.33° C | 44% | 1019.6 hPa | 0 mm | - | 701 W/m² | - |
| 1777817821 | 13.89° C | 44% | 1019.6 hPa | 0 mm | - | 688 W/m² | - |
| 1777817519 | 13.33° C | 43% | 1019.4 hPa | 0 mm | - | 671 W/m² | - |
| 1777817215 | 13.33° C | 44% | 1019.6 hPa | 0 mm | - | 658 W/m² | - |
| 1777816913 | 13.89° C | 45% | 1019.5 hPa | 0 mm | - | 643 W/m² | - |
| 1777816609 | 13.89° C | 43% | 1019.5 hPa | 0 mm | - | 625 W/m² | - |
| 1777816306 | 12.78° C | 46% | 1019.4 hPa | 0 mm | - | 608 W/m² | - |
| 1777816004 | 12.78° C | 46% | 1019.5 hPa | 0 mm | - | 593 W/m² | - |
| 1777815701 | 12.78° C | 47% | 1019.7 hPa | 0 mm | - | 575 W/m² | - |
| 1777815398 | 12.78° C | 48% | 1019.6 hPa | 0 mm | - | 556 W/m² | - |
* Rain latest hour (hover to see other rain measurements)
** Current wind speed in m/s (hover to see current wind gust speed)